Showing default

COSMOS 81, 1571

Orbit data source: Space-Track

COSMOS 81, 1571 is a payload satellite owned by OKB-10 (CIS) in LEO that was launched on Fri, 03 Sep 1965 UTC via a KOSMOS 65S3 launch vehicle from the Tyuratam Missile And Space Complex (TTMTR). Payload-class satellites include a variety of spacecraft equipped with specific instruments for various scientific and technological missions. These include communications satellites like Starlink; space stations such as the ISS; scientific satellites like the Hubble; Earth observation satellites from companies like Planet Labs, Umbra, and HawkEye 360; GPS; miniature CubeSats for education and research; and military/defense satellites.

Loading next visibility...
Identifier
1571, 1965-070B
Orbit
LEO
Last TLE update
8 hours ago
Origin
Manufacturer
OKB-10
Mission
Defense Communications
Bus & Motor
STRELA-1 11F610, Unknown motor
Mass
50 kg wet, 50 kg dry
Launch date (UTC)
1965-09-03 (60 years ago)
Launch vehicle
KOSMOS 65S3
Launch site
Tyuratam Missile And Space Complex (TTMTR)
Object type
Payload
Rocket body
Debris
Shape & HBR
Poly, 0.8 m
Radar Cross Section
0.731 m², Medium (>0.1 m² and < 1m²)

Expand to show TLE details & history

TLE from 8 hours ago
0 COSMOS 81
1 01571U 65070B   25186.58382844 -.00000099  00000-0 -25942-4 0  9992
2 01571  56.0614  54.8183 0087418 343.7885  51.4731 12.48862739729327
Epoch: 2025-07-05T14:00Z
TLE epoch observation values (Epoch: 2025-07-05T14:00:42.777Z)
Latitude
29.29978°
Longitude
-57.10753°
Altitude
1,428.733 km
Speed
7.169 km/s
True Right ascension
05h 07m 33s
True Declination
29° 09' 57"
Sunlit
Object was in daylight at epoch
Visualization orbit readout
Latitude
48.98995°
Longitude
49.54851°
Altitude
1,519.482 km
Speed
7.091 km/s
Apparent Right ascension
16h 46m 12s
Apparent Declination
33° 07' 40"
Sunlit
Object is in daylight
Visualization observer readout
Local Sidereal Time
10:03:09
Azimuth
57.73° ENE
Elevation
13.341°
Doppler factor
1
Orbital elements
Apogee altitude
1,537.677 km
Perigee altitude
1,400.479 km
Semi-major axis
7,847.215 km
Eccentricity
0.00874
Inclination
56.0614°
RAAN
54.8183°
Arg. of periapsis
343.7885°
True anomaly
Unknown
Mean anomaly
51.4731°
Eccentric anomaly
Unknown
Mean motion
3.12227 °/min
Orbital period
115.3 mins
BSTAR
-0.000025942
Loading maneuver chart data...
Loading SW <> Apogee altitude chart data...
Loading historical data...
Loading historical data...
Loading historical data...
Loading historical data...
Loading historical data...
Loading historical data...
Loading historical data...
Other satellites on launch #70 in the year 1965 (1965-09-03 UTC)

COSMOS 81 Visibility forecast

Observer location: undefined°, undefined°

Span
Click to sort rows by Start time (UTC) header in descending order
Start Az.
Max El. time (UTC)
Max El. Az.
Max El.
End time (UTC)
End Az.
16 mins2025-07-05 23:56:00.934Z322.304° NNW2025-07-06 00:03:00.934Z28.245° NE37.036°2025-07-06 00:12:00.934Z105.249° ESE
16 mins2025-07-06 01:57:00.934Z306.136° NW2025-07-06 02:04:00.934Z234.046° WSW41.015°2025-07-06 02:13:00.934Z156.152° SSE
5 mins2025-07-06 04:01:00.934Z262.942° W2025-07-06 04:03:00.934Z249.588° W12.075°2025-07-06 04:06:00.934Z229.972° WSW
15 mins2025-07-06 16:50:00.934Z199.649° SSW2025-07-06 16:57:00.934Z132.883° SE39.843°2025-07-06 17:05:00.934Z52.847° ENE
15 mins2025-07-06 18:51:00.934Z258.03° W2025-07-06 18:58:00.934Z329.094° NNW37.187°2025-07-06 19:06:00.934Z40.581° NE
13 mins2025-07-06 20:55:00.934Z306.074° NW2025-07-06 21:01:00.934Z358.396° N25.5°2025-07-06 21:08:00.934Z50.9° ENE
|